When you browse on this site, cookies collect data to enhance your experience and personalize the content and advertising you see.
Visit our Privacy Policy to learn more. By continuing to use the site, you agree to this use of cookies and data.
EN

Hourly Weather San Jacinto

Today, 8 August, Saturday

Time Temperature Precipitation Wind Pressure Humidity
00:00 +18°C° 0 mm 1 mps 717 mmHg 66%
01:00 +18°C° 0 mm 1 mps 717 mmHg 67%
02:00 +18°C° 0 mm 1 mps 717 mmHg 66%
03:00 +16°C° 0 mm 0 mps 717 mmHg 65%
04:00 +15°C° 0 mm 0 mps 717 mmHg 65%
05:00 +18°C° 0 mm 0 mps 718 mmHg 54%
06:00 +23°C° 0 mm 1 mps 718 mmHg 44%
07:00 +26°C° 0 mm 1 mps 719 mmHg 33%
08:00 +29°C° 0 mm 1 mps 719 mmHg 29%
09:00 +31°C° 0 mm 2 mps 720 mmHg 25%
10:00 +34°C° 0 mm 2 mps 720 mmHg 20%
11:00 +35°C° 0 mm 3 mps 719 mmHg 19%
12:00 +36°C° 0 mm 3 mps 719 mmHg 18%
13:00 +37°C° 0 mm 4 mps 719 mmHg 16%
14:00 +37°C° 0 mm 4 mps 719 mmHg 19%
15:00 +36°C° 0 mm 4 mps 718 mmHg 21%
16:00 +35°C° 0 mm 4 mps 718 mmHg 24%
17:00 +30°C° 0 mm 3 mps 717 mmHg 33%
18:00 +26°C° 0 mm 2 mps 717 mmHg 43%
19:00 +23°C° 0 mm 1 mps 717 mmHg 53%
20:00 +22°C° 0 mm 1 mps 717 mmHg 56%
21:00 +21°C° 0 mm 1 mps 717 mmHg 59%
22:00 +20°C° 0 mm 1 mps 718 mmHg 62%
23:00 +19°C° 0 mm 1 mps 717 mmHg 63%

Tomorrow, 9 August, Sunday

Time Temperature Precipitation Wind Pressure Humidity
00:00 +19°C° 0 mm 1 mps 717 mmHg 64%
01:00 +17°C° 0 mm 0 mps 717 mmHg 65%
02:00 +17°C° 0 mm 0 mps 717 mmHg 64%
03:00 +17°C° 0 mm 0 mps 717 mmHg 64%
04:00 +16°C° 0 mm 0 mps 717 mmHg 63%
05:00 +19°C° 0 mm 0 mps 717 mmHg 54%
06:00 +23°C° 0 mm 0 mps 718 mmHg 44%
07:00 +28°C° 0 mm 1 mps 719 mmHg 34%
08:00 +30°C° 0 mm 1 mps 719 mmHg 30%
09:00 +32°C° 0 mm 1 mps 719 mmHg 26%
10:00 +35°C° 0 mm 2 mps 719 mmHg 21%
11:00 +36°C° 0 mm 3 mps 719 mmHg 20%
12:00 +37°C° 0 mm 3 mps 719 mmHg 19%
13:00 +38°C° 0 mm 4 mps 718 mmHg 18%
14:00 +37°C° 0 mm 4 mps 718 mmHg 20%
15:00 +37°C° 0 mm 4 mps 717 mmHg 21%
16:00 +36°C° 0 mm 4 mps 717 mmHg 23%
17:00 +31°C° 0 mm 3 mps 716 mmHg 31%
18:00 +27°C° 0 mm 2 mps 716 mmHg 40%
19:00 +23°C° 0 mm 2 mps 716 mmHg 49%
20:00 +22°C° 0 mm 1 mps 716 mmHg 53%
21:00 +21°C° 0 mm 1 mps 716 mmHg 56%
22:00 +20°C° 0 mm 1 mps 716 mmHg 60%
23:00 +20°C° 0 mm 1 mps 716 mmHg 61%

Day after tomorrow, 10 August, Monday

Time Temperature Precipitation Wind Pressure Humidity
00:00 +20°C° 0 mm 1 mps 716 mmHg 62%
01:00 +19°C° 0 mm 1 mps 716 mmHg 63%
02:00 +17°C° 0 mm 0 mps 716 mmHg 63%
03:00 +17°C° 0 mm 0 mps 716 mmHg 63%
04:00 +16°C° 0 mm 0 mps 716 mmHg 63%
05:00 +21°C° 0 mm 1 mps 717 mmHg 53%
06:00 +24°C° 0 mm 1 mps 718 mmHg 44%
07:00 +27°C° 0 mm 1 mps 718 mmHg 34%
08:00 +29°C° 0 mm 1 mps 719 mmHg 29%
09:00 +31°C° 0 mm 1 mps 719 mmHg 23%
10:00 +34°C° 0 mm 2 mps 719 mmHg 17%
11:00 +36°C° 0 mm 2 mps 719 mmHg 15%
12:00 +37°C° 0 mm 3 mps 719 mmHg 13%
13:00 +38°C° 0 mm 4 mps 718 mmHg 11%
14:00 +38°C° 0 mm 4 mps 718 mmHg 13%
15:00 +37°C° 0 mm 4 mps 717 mmHg 15%
16:00 +36°C° 0 mm 4 mps 717 mmHg 17%
17:00 +31°C° 0 mm 3 mps 716 mmHg 26%
18:00 +27°C° 0 mm 2 mps 716 mmHg 34%
19:00 +23°C° 0 mm 2 mps 716 mmHg 43%
20:00 +22°C° 0 mm 1 mps 716 mmHg 47%
21:00 +21°C° 0 mm 1 mps 716 mmHg 51%
22:00 +19°C° 0 mm 1 mps 717 mmHg 56%
23:00 +19°C° 0 mm 1 mps 717 mmHg 57%

11 August, Tuesday

Time Temperature Precipitation Wind Pressure Humidity
00:00 +19°C° 0 mm 1 mps 717 mmHg 58%
01:00 +18°C° 0 mm 1 mps 716 mmHg 59%
02:00 +18°C° 0 mm 1 mps 716 mmHg 59%
03:00 +16°C° 0 mm 1 mps 716 mmHg 59%
04:00 +16°C° 0 mm 1 mps 716 mmHg 58%
05:00 +20°C° 0 mm 1 mps 717 mmHg 48%
06:00 +24°C° 0 mm 1 mps 717 mmHg 37%
07:00 +27°C° 0 mm 1 mps 718 mmHg 26%
08:00 +29°C° 0 mm 1 mps 718 mmHg 22%
09:00 +31°C° 0 mm 2 mps 718 mmHg 18%
10:00 +34°C° 0 mm 2 mps 719 mmHg 15%
11:00 +36°C° 0 mm 3 mps 718 mmHg 13%
12:00 +37°C° 0 mm 3 mps 718 mmHg 12%
13:00 +38°C° 0 mm 3 mps 718 mmHg 11%
14:00 +37°C° 0 mm 4 mps 717 mmHg 13%
15:00 +37°C° 0 mm 4 mps 717 mmHg 15%
16:00 +36°C° 0 mm 5 mps 716 mmHg 17%
17:00 +32°C° 0 mm 4 mps 716 mmHg 26%
18:00 +27°C° 0 mm 3 mps 716 mmHg 36%
19:00 +22°C° 0 mm 1 mps 715 mmHg 46%
20:00 +21°C° 0 mm 1 mps 716 mmHg 50%
21:00 +20°C° 0 mm 1 mps 716 mmHg 54%
22:00 +19°C° 0 mm 1 mps 716 mmHg 57%
23:00 +19°C° 0 mm 1 mps 716 mmHg 58%

12 August, Wednesday

Time Temperature Precipitation Wind Pressure Humidity
00:00 +19°C° 0 mm 1 mps 716 mmHg 58%
01:00 +18°C° 0 mm 1 mps 716 mmHg 58%
02:00 +18°C° 0 mm 1 mps 716 mmHg 58%
03:00 +18°C° 0 mm 1 mps 716 mmHg 58%
04:00 +16°C° 0 mm 1 mps 716 mmHg 57%
05:00 +21°C° 0 mm 1 mps 716 mmHg 46%
06:00 +24°C° 0 mm 1 mps 717 mmHg 34%
07:00 +28°C° 0 mm 1 mps 718 mmHg 23%
08:00 +30°C° 0 mm 1 mps 718 mmHg 20%
09:00 +32°C° 0 mm 2 mps 718 mmHg 16%
10:00 +35°C° 0 mm 2 mps 718 mmHg 13%
11:00 +36°C° 0 mm 3 mps 718 mmHg 12%
12:00 +37°C° 0 mm 4 mps 718 mmHg 11%
13:00 +38°C° 0 mm 4 mps 717 mmHg 10%
14:00 +38°C° 0 mm 4 mps 717 mmHg 12%
15:00 +37°C° 0 mm 4 mps 717 mmHg 13%
16:00 +36°C° 0 mm 5 mps 716 mmHg 14%
17:00 +32°C° 0 mm 4 mps 716 mmHg 22%
18:00 +27°C° 0 mm 3 mps 716 mmHg 30%
19:00 +23°C° 0 mm 2 mps 715 mmHg 38%
20:00 +22°C° 0 mm 1 mps 716 mmHg 42%
21:00 +21°C° 0 mm 1 mps 716 mmHg 47%
22:00 +20°C° 0 mm 1 mps 716 mmHg 51%
23:00 +20°C° 0 mm 1 mps 716 mmHg 51%

13 August, Thursday

Time Temperature Precipitation Wind Pressure Humidity
00:00 +19°C° 0 mm 1 mps 716 mmHg 50%
01:00 +19°C° 0 mm 1 mps 716 mmHg 50%
02:00 +19°C° 0 mm 1 mps 716 mmHg 50%
03:00 +18°C° 0 mm 1 mps 715 mmHg 51%
04:00 +18°C° 0 mm 1 mps 715 mmHg 51%
05:00 +21°C° 0 mm 1 mps 716 mmHg 41%
06:00 +24°C° 0 mm 1 mps 717 mmHg 31%
07:00 +27°C° 0 mm 1 mps 717 mmHg 20%
08:00 +30°C° 0 mm 1 mps 718 mmHg 18%
09:00 +32°C° 0 mm 2 mps 718 mmHg 15%
10:00 +35°C° 0 mm 3 mps 718 mmHg 13%
11:00 +36°C° 0 mm 3 mps 718 mmHg 12%
12:00 +37°C° 0 mm 4 mps 718 mmHg 11%
13:00 +38°C° 0 mm 4 mps 717 mmHg 10%
14:00 +37°C° 0 mm 4 mps 717 mmHg 11%
15:00 +37°C° 0 mm 4 mps 716 mmHg 12%
16:00 +36°C° 0 mm 5 mps 716 mmHg 14%
17:00 +32°C° 0 mm 4 mps 716 mmHg 23%
18:00 +27°C° 0 mm 3 mps 715 mmHg 32%
19:00 +21°C° 0 mm 2 mps 715 mmHg 41%
20:00 +20°C° 0 mm 2 mps 715 mmHg 45%
21:00 +20°C° 0 mm 1 mps 715 mmHg 50%
22:00 +19°C° 0 mm 1 mps 716 mmHg 54%
23:00 +19°C° 0 mm 1 mps 715 mmHg 54%
Show more